RANA Weather Reports


time (UTC)temp
F
wind
direction
speed
knots
gust
knots
rain 1hr
in
rain 24hr
in
rain mn
in
humidity
%
barometer
mb
20260904042510 61 259 13.9 15.6 0.00 0.00 0.00 85
20260904042011 61 271 11.3 13.9 0.00 0.00 0.00 85
20260904041512 61 270 13.9 15.6 0.00 0.00 0.00 84
20260904041010 61 272 17.4 17.4 0.00 0.00 0.00 85
20260904040510 59 270 15.6 15.6 0.00 0.00 0.00 86
20260904040010 59 268 13.9 15.6 0.00 0.00 0.00 86
20260904035511 61 271 13.9 15.6 0.00 0.00 0.00 86
20260904035010 59 270 13.9 15.6 0.00 0.00 0.00 86
20260904034511 61 266 13.9 13.9 0.00 0.00 0.00 85
20260904034011 61 268 13.9 15.6 0.00 0.00 0.00 85
20260904033510 61 260 15.6 15.6 0.00 0.00 0.00 85
20260904033010 61 257 13.9 15.6 0.00 0.00 0.00 85
20260904032509 61 252 13.9 15.6 0.00 0.00 0.00 85
20260904032016 59 258 15.6 17.4 0.00 0.00 0.00 85
20260904031510 59 257 13.9 15.6 0.00 0.00 0.00 85
20260904031010 59 254 13.9 13.9 0.00 0.00 0.00 85
20260904030510 59 264 13.9 15.6 0.00 0.00 0.00 85
20260904030011 59 260 13.9 13.9 0.00 0.00 0.00 85
20260904025510 59 264 13.9 15.6 0.00 0.00 0.00 85
20260904025010 59 271 13.9 15.6 0.00 0.00 0.00 85
20260904024511 59 266 13.9 13.9 0.00 0.00 0.00 85
20260904024011 59 274 13.9 13.9 0.00 0.00 0.00 85
20260904023510 59 274 13.9 15.6 0.00 0.00 0.00 85
20260904023010 59 271 15.6 15.6 0.00 0.00 0.00 85
20260904022510 59 270 15.6 15.6 0.00 0.00 0.00 86
20260904022017 59 268 13.9 15.6 0.00 0.00 0.00 86
20260904021510 59 268 13.9 15.6 0.00 0.00 0.00 85
20260904021010 59 269 15.6 15.6 0.00 0.00 0.00 85
20260904020010 59 267 13.9 15.6 0.00 0.00 0.00 85
20260904015510 59 274 13.9 15.6 0.00 0.00 0.00 84
20260904015010 59 271 15.6 17.4 0.00 0.00 0.00 84
20260904014511 59 267 15.6 17.4 0.00 0.00 0.00 85
20260904014010 59 263 15.6 15.6 0.00 0.00 0.00 85
20260904013510 59 265 13.9 15.6 0.00 0.00 0.00 85
20260904013010 59 267 13.9 13.9 0.00 0.00 0.00 85
20260904012515 59 270 13.9 13.9 0.00 0.00 0.00 85
20260904012011 59 272 15.6 17.4 0.00 0.00 0.00 85
20260904011510 59 272 15.6 15.6 0.00 0.00 0.00 85
20260904011010 59 273 15.6 15.6 0.00 0.00 0.00 85
20260904010510 59 275 13.9 15.6 0.00 0.00 0.00 85
20260904010010 59 274 13.9 15.6 0.00 0.00 0.00 85
20260904005510 59 276 13.9 15.6 0.00 0.00 0.00 85
20260904005010 59 278 13.9 13.9 0.00 0.00 0.00 84
20260904004510 59 273 11.3 13.9 0.00 0.00 0.00 83
20260904004010 59 276 11.3 11.3 0.00 0.00 0.00 84
20260904003510 59 279 11.3 13.9 0.00 0.00 0.00 82
20260904003011 59 282 13.9 13.9 0.00 0.00 0.00 84
20260904002511 59 278 13.9 15.6 0.00 0.00 0.00 84
20260904002017 59 279 13.9 15.6 0.00 0.00 0.00 84
20260904001510 59 278 15.6 17.4 0.00 0.00 0.00 83
20260904001011 59 275 15.6 17.4 0.00 0.00 0.00 83
20260904000011 59 276 15.6 17.4 0.00 0.00 0.00 83
20260903235510 59 275 15.6 15.6 0.00 0.00 0.00 83
20260903235010 59 274 13.9 15.6 0.00 0.00 0.00 83
20260903234510 59 274 17.4 17.4 0.00 0.00 0.00 83
20260903234010 59 275 17.4 19.1 0.00 0.00 0.00 83
20260903233510 59 273 17.4 19.1 0.00 0.00 0.00 83
20260903233010 59 276 17.4 19.1 0.00 0.00 0.00 82
20260903232511 59 274 19.1 19.1 0.00 0.00 0.00 82
20260903232018 59 271 19.1 19.1 0.00 0.00 0.00 82
20260903231510 59 271 19.1 21.7 0.00 0.00 0.00 82
20260903231009 59 271 17.4 19.1 0.00 0.00 0.00 82
20260903230511 59 277 17.4 19.1 0.00 0.00 0.00 82
20260903230010 59 275 17.4 19.1 0.00 0.00 0.00 82
20260903225510 59 272 17.4 17.4 0.00 0.00 0.00 82
20260903225011 59 276 17.4 19.1 0.00 0.00 0.00 82
20260903224511 59 278 15.6 15.6 0.00 0.00 0.00 82
20260903224010 59 273 15.6 17.4 0.00 0.00 0.00 82
20260903223511 61 272 17.4 17.4 0.00 0.00 0.00 81
20260903223010 61 269 15.6 17.4 0.00 0.00 0.00 80
20260903222511 59 272 17.4 19.1 0.00 0.00 0.00 80
20260903222011 61 271 15.6 17.4 0.00 0.00 0.00 80
20260903221510 59 272 17.4 17.4 0.00 0.00 0.00 80
20260903221009 59 270 17.4 17.4 0.00 0.00 0.00 80
20260903220510 59 273 15.6 17.4 0.00 0.00 0.00 81
20260903220011 61 269 17.4 19.1 0.00 0.00 0.00 80
20260903215511 59 269 13.9 15.6 0.00 0.00 0.00 80
20260903215010 61 272 17.4 21.7 0.00 0.00 0.00 80
20260903214511 61 269 17.4 21.7 0.00 0.00 0.00 80
20260903214010 61 269 17.4 21.7 0.00 0.00 0.00 79
20260903213511 61 270 17.4 19.1 0.00 0.00 0.00 79
20260903213011 61 274 19.1 21.7 0.00 0.00 0.00 78
20260903212511 61 276 19.1 19.1 0.00 0.00 0.00 78
20260903212018 61 274 17.4 19.1 0.00 0.00 0.00 77
20260903211511 61 275 19.1 19.1 0.00 0.00 0.00 76
20260903211010 61 274 17.4 19.1 0.00 0.00 0.00 76
20260903210510 61 277 17.4 19.1 0.00 0.00 0.00 76
20260903210010 61 275 17.4 19.1 0.00 0.00 0.00 75
20260903205510 63 278 19.1 21.7 0.00 0.00 0.00 74
20260903205011 63 276 19.1 21.7 0.00 0.00 0.00 74
20260903204511 63 277 17.4 19.1 0.00 0.00 0.00 74
20260903204010 63 278 15.6 17.4 0.00 0.00 0.00 74
20260903203510 61 272 17.4 19.1 0.00 0.00 0.00 74
20260903203011 63 273 17.4 21.7 0.00 0.00 0.00 74
20260903202511 63 274 19.1 21.7 0.00 0.00 0.00 74
20260903202018 61 275 19.1 23.5 0.00 0.00 0.00 75
20260903201511 61 272 19.1 23.5 0.00 0.00 0.00 75
20260903201010 61 271 17.4 21.7 0.00 0.00 0.00 75
20260903200511 61 267 19.1 19.1 0.00 0.00 0.00 76
20260903200010 61 268 17.4 19.1 0.00 0.00 0.00 76
20260903195510 61 269 17.4 19.1 0.00 0.00 0.00 76
20260903195011 61 268 19.1 21.7 0.00 0.00 0.00 76
20260903194510 61 267 19.1 21.7 0.00 0.00 0.00 76
20260903194010 61 271 19.1 19.1 0.00 0.00 0.00 76
20260903193510 61 270 19.1 21.7 0.00 0.00 0.00 76
20260903193011 61 269 21.7 23.5 0.00 0.00 0.00 76
20260903192510 61 270 23.5 25.2 0.00 0.00 0.00 76
20260903192010 61 259 19.1 21.7 0.00 0.00 0.00 78
20260903191517 61 250 17.4 17.4 0.00 0.00 0.00 78
20260903191009 61 247 13.9 15.6 0.00 0.00 0.00 79
20260903190511 61 249 13.9 13.9 0.00 0.00 0.00 78
20260903190011 61 235 13.9 15.6 0.00 0.00 0.00 78
20260903185510 61 233 13.9 15.6 0.00 0.00 0.00 78
20260903185012 61 247 11.3 13.9 0.00 0.00 0.00 78
20260903184510 61 251 11.3 13.9 0.00 0.00 0.00 76
20260903184010 61 247 11.3 13.9 0.00 0.00 0.00 77
20260903183511 61 249 9.6 9.6 0.00 0.00 0.00 76
20260903183010 61 262 11.3 13.9 0.00 0.00 0.00 76
20260903182511 61 256 11.3 13.9 0.00 0.00 0.00 77
20260903182018 61 251 11.3 11.3 0.00 0.00 0.00 77
20260903181511 61 262 13.9 15.6 0.00 0.00 0.00 77
20260903181009 61 256 13.9 13.9 0.00 0.00 0.00 77
20260903180510 61 267 15.6 17.4 0.00 0.00 0.00 76
20260903180011 61 263 15.6 15.6 0.00 0.00 0.00 77
20260903175510 61 261 15.6 17.4 0.00 0.00 0.00 77
20260903175010 61 264 15.6 17.4 0.00 0.00 0.00 77
20260903174510 61 262 15.6 17.4 0.00 0.00 0.00 77
20260903174010 61 262 15.6 17.4 0.00 0.00 0.00 76
20260903173510 61 267 17.4 17.4 0.00 0.00 0.00 75
20260903173011 61 272 19.1 19.1 0.00 0.00 0.00 75
20260903172511 61 274 19.1 21.7 0.00 0.00 0.00 75
20260903172013 61 270 21.7 23.5 0.00 0.00 0.00 74
20260903171511 61 271 23.5 25.2 0.00 0.00 0.00 74
20260903171011 63 269 23.5 25.2 0.00 0.00 0.00 73
20260903170510 63 261 21.7 23.5 0.00 0.00 0.00 72
20260903170010 63 259 19.1 21.7 0.00 0.00 0.00 70
20260903165511 63 259 19.1 23.5 0.00 0.00 0.00 70
20260903165010 63 267 19.1 23.5 0.00 0.00 0.00 69
20260903164510 63 259 19.1 23.5 0.00 0.00 0.00 68
20260903164010 63 267 21.7 23.5 0.00 0.00 0.00 68
20260903163510 63 270 21.7 25.2 0.00 0.00 0.00 68
20260903163011 63 271 21.7 25.2 0.00 0.00 0.00 68
20260903162515 63 273 23.5 26.9 0.00 0.00 0.00 68
20260903162011 64 272 23.5 26.9 0.00 0.00 0.00 67
20260903161511 64 269 25.2 26.9 0.00 0.00 0.00 66
20260903161009 64 269 23.5 26.9 0.00 0.00 0.00 64
20260903160509 64 283 25.2 29.5 0.00 0.00 0.00 63
20260903160011 64 273 26.9 33.0 0.00 0.00 0.00 62
20260903155510 64 272 26.9 29.5 0.00 0.00 0.00 61
20260903155011 66 276 26.9 31.3 0.00 0.00 0.00 61
20260903154511 66 271 26.9 31.3 0.00 0.00 0.00 60
20260903154010 66 275 31.3 33.0 0.00 0.00 0.00 59
20260903153511 66 272 29.5 33.0 0.00 0.00 0.00 58
20260903153011 66 271 29.5 31.3 0.00 0.00 0.00 56
20260903152510 68 274 29.5 33.0 0.00 0.00 0.00 55
20260903152017 68 272 29.5 33.0 0.00 0.00 0.00 55
20260903151510 68 275 26.9 33.0 0.00 0.00 0.00 54
20260903151009 68 276 26.9 31.3 0.00 0.00 0.00 54
20260903150511 68 279 25.2 26.9 0.00 0.00 0.00 54
20260903150010 68 267 23.5 26.9 0.00 0.00 0.00 53
20260903145510 68 269 21.7 23.5 0.00 0.00 0.00 53
20260903145011 68 277 21.7 25.2 0.00 0.00 0.00 52
20260903144510 68 266 23.5 26.9 0.00 0.00 0.00 52
20260903144009 68 272 23.5 26.9 0.00 0.00 0.00 52
20260903143511 70 268 25.2 26.9 0.00 0.00 0.00 51
20260903143010 70 274 23.5 25.2 0.00 0.00 0.00 51
20260903142510 70 267 21.7 25.2 0.00 0.00 0.00 51
20260903142018 70 265 21.7 23.5 0.00 0.00 0.00 51
20260903141510 70 264 19.1 23.5 0.00 0.00 0.00 51
20260903141010 70 254 17.4 19.1 0.00 0.00 0.00 50
20260903140510 70 263 15.6 19.1 0.00 0.00 0.00 50
20260903140011 70 257 19.1 21.7 0.00 0.00 0.00 50
20260903135510 70 259 19.1 23.5 0.00 0.00 0.00 50
20260903135010 70 257 19.1 23.5 0.00 0.00 0.00 49
20260903134510 70 251 19.1 23.5 0.00 0.00 0.00 49
20260903134011 70 253 17.4 19.1 0.00 0.00 0.00 49
20260903133510 70 255 17.4 21.7 0.00 0.00 0.00 49
20260903133011 70 266 17.4 19.1 0.00 0.00 0.00 49
20260903132511 70 251 6.1 7.8 0.00 0.00 0.00 51
20260903132010 70 257 7.8 9.6 0.00 0.00 0.00 50
20260903131511 68 261 9.6 11.3 0.00 0.00 0.00 51
20260903131009 68 268 13.9 15.6 0.00 0.00 0.00 50
20260903130511 68 261 15.6 17.4 0.00 0.00 0.00 49
20260903130011 68 254 13.9 15.6 0.00 0.00 0.00 50
20260903125510 68 263 13.9 17.4 0.00 0.00 0.00 50
20260903125010 68 266 11.3 15.6 0.00 0.00 0.00 51
20260903124511 68 248 13.9 15.6 0.00 0.00 0.00 50
20260903124011 68 269 17.4 21.7 0.00 0.00 0.00 50
20260903123510 68 243 17.4 19.1 0.00 0.00 0.00 49
20260903123010 68 251 17.4 19.1 0.00 0.00 0.00 48
20260903122511 68 273 21.7 23.5 0.00 0.00 0.00 49
20260903122017 68 255 19.1 23.5 0.00 0.00 0.00 48
20260903121511 68 249 21.7 25.2 0.00 0.00 0.00 49
20260903121009 68 256 17.4 21.7 0.00 0.00 0.00 49
20260903120511 70 245 15.6 19.1 0.00 0.00 0.00 48
20260903120015 68 235 13.9 17.4 0.00 0.00 0.00 49
20260903115510 68 261 17.4 21.7 0.00 0.00 0.00 49
20260903115011 66 262 17.4 19.1 0.00 0.00 0.00 50
20260903114511 66 264 19.1 21.7 0.00 0.00 0.00 51
20260903114010 66 264 19.1 23.5 0.00 0.00 0.00 51
20260903113510 66 256 21.7 23.5 0.00 0.00 0.00 51
20260903113011 66 257 19.1 21.7 0.00 0.00 0.00 52
20260903112510 66 261 19.1 23.5 0.00 0.00 0.00 52
20260903112011 66 255 17.4 23.5 0.00 0.00 0.00 52
20260903111510 66 247 19.1 23.5 0.00 0.00 0.00 52
20260903111011 66 255 23.5 26.9 0.00 0.00 0.00 52
20260903110511 66 259 17.4 19.1 0.00 0.00 0.00 52
20260903110010 66 257 17.4 19.1 0.00 0.00 0.00 51
20260903105510 66 261 15.6 17.4 0.00 0.00 0.00 50
20260903105010 66 261 17.4 19.1 0.00 0.00 0.00 50
20260903104511 66 275 19.1 21.7 0.00 0.00 0.00 49
20260903104010 66 269 15.6 19.1 0.00 0.00 0.00 48
20260903103510 68 252 13.9 17.4 0.00 0.00 0.00 49
20260903103010 66 272 17.4 19.1 0.00 0.00 0.00 48
20260903102511 66 278 17.4 21.7 0.00 0.00 0.00 48
20260903102011 66 265 19.1 23.5 0.00 0.00 0.00 47
20260903101510 68 259 15.6 17.4 0.00 0.00 0.00 47
20260903101017 68 255 15.6 17.4 0.00 0.00 0.00 45
20260903100511 68 261 17.4 19.1 0.00 0.00 0.00 46
20260903100010 68 260 15.6 17.4 0.00 0.00 0.00 47
20260903095511 68 244 11.3 13.9 0.00 0.00 0.00 46
20260903095011 68 263 11.3 13.9 0.00 0.00 0.00 48
20260903094512 68 269 15.6 17.4 0.00 0.00 0.00 47
20260903094010 66 262 13.9 15.6 0.00 0.00 0.00 48
20260903093510 66 283 13.9 15.6 0.00 0.00 0.00 49
20260903093011 66 270 15.6 19.1 0.00 0.00 0.00 48
20260903092510 66 283 15.6 19.1 0.00 0.00 0.00 51
20260903092012 66 267 13.9 17.4 0.00 0.00 0.00 49
20260903091510 70 238 11.3 17.4 0.00 0.00 0.00 46
20260903091010 68 271 7.8 7.8 0.00 0.00 0.00 54
20260903090511 70 250 6.1 7.8 0.00 0.00 0.00 54
20260903090011 68 246 6.1 7.8 0.00 0.00 0.00 56
20260903085511 66 253 7.8 7.8 0.00 0.00 0.00 56
20260903085011 66 243 7.8 9.6 0.00 0.00 0.00 59
20260903084511 66 246 3.5 6.1 0.00 0.00 0.00 58
20260903084011 66 241 7.8 11.3 0.00 0.00 0.00 57
20260903083510 66 225 1.7 1.7 0.00 0.00 0.00 60
20260903083010 68 244 3.5 3.5 0.00 0.00 0.00 59
20260903082511 66 225 1.7 3.5 0.00 0.00 0.00 63
20260903082012 64 204 3.5 6.1 0.00 0.00 0.00 66
20260903081510 64 209 3.5 6.1 0.00 0.00 0.00 64
20260903081012 64 251 3.5 6.1 0.00 0.00 0.00 62
20260903080519 64 250 3.5 6.1 0.00 0.00 0.00 64
20260903080011 64 239 3.5 6.1 0.00 0.00 0.00 63
20260903075510 64 267 3.5 3.5 0.00 0.00 0.00 61
20260903075010 64 257 3.5 3.5 0.00 0.00 0.00 61
20260903074511 64 259 1.7 3.5 0.00 0.00 0.00 61
20260903074010 64 270 3.5 6.1 0.00 0.00 0.00 63
20260903073511 64 267 6.1 7.8 0.00 0.00 0.00 62
20260903073011 64 256 3.5 6.1 0.00 0.00 0.00 65
20260903072510 63 259 6.1 6.1 0.00 0.00 0.00 65
20260903072018 63 262 3.5 6.1 0.00 0.00 0.00 67
20260903071511 63 266 6.1 7.8 0.00 0.00 0.00 68
20260903071011 63 267 6.1 6.1 0.00 0.00 0.00 70
20260903070510 61 273 6.1 7.8 0.00 0.00 0.00 70
20260903070011 61 274 6.1 7.8 0.00 0.00 0.00 70
20260903065510 61 286 3.5 6.1 0.00 0.00 0.00 72
20260903065011 59 283 6.1 7.8 0.00 0.00 0.00 73
20260903064511 59 281 6.1 7.8 0.00 0.00 0.00 73
20260903064010 59 273 7.8 9.6 0.00 0.00 0.00 71
20260903063510 59 276 7.8 9.6 0.00 0.00 0.00 71
20260903063010 59 270 7.8 9.6 0.00 0.00 0.00 68
20260903062510 61 267 7.8 7.8 0.00 0.00 0.00 69
20260903062011 61 272 6.1 6.1 0.00 0.00 0.00 68
20260903061510 61 269 6.1 6.1 0.00 0.00 0.00 68
20260903061010 61 269 6.1 6.1 0.00 0.00 0.00 67
20260903060510 61 270 3.5 3.5 0.00 0.00 0.00 66
20260903060010 61 272 3.5 3.5 0.00 0.00 0.00 66
20260903055510 61 273 3.5 6.1 0.00 0.00 0.00 66
20260903055010 61 277 3.5 3.5 0.00 0.00 0.00 66
20260903054510 61 278 3.5 3.5 0.00 0.00 0.00 66
20260903054011 61 280 3.5 3.5 0.00 0.00 0.00 66
20260903053511 61 278 3.5 3.5 0.00 0.00 0.00 66
20260903053010 61 276 3.5 3.5 0.00 0.00 0.00 67
20260903052511 61 277 3.5 3.5 0.00 0.00 0.00 67
20260903052012 61 280 3.5 6.1 0.00 0.00 0.00 68
20260903051511 61 277 3.5 3.5 0.00 0.00 0.00 68
20260903051009 59 281 3.5 3.5 0.00 0.00 0.00 71
20260903050510 57 283 3.5 3.5 0.00 0.00 0.00 73
20260903050010 57 286 3.5 6.1 0.00 0.00 0.00 73
20260903045510 57 282 6.1 6.1 0.00 0.00 0.00 72
20260903045010 57 287 3.5 3.5 0.00 0.00 0.00 72
20260903044510 59 292 1.7 3.5 0.00 0.00 0.00 71
20260903044010 59 293 3.5 3.5 0.00 0.00 0.00 71
20260903043510 59 298 6.1 6.1 0.00 0.00 0.00 71
20260903043011 59 299 6.1 7.8 0.00 0.00 0.00 71